Location: Lasqueti Island Observatory
(49.4855°N, 124.2726°W)
Time: 07:18:56
(UTC-08:00)

ISS - Visible Passes

Search period start: 27 November 2020 00:00
Search period end: 07 December 2020 00:00
Orbit: 418 x 420 km, 51.6° (Epoch: 28 November)

Date Brightness Start Highest point End Pass type
(mag) Time Alt. Az. Time Alt. Az. Time Alt. Az.
27 Nov -3.8 17:42:12 10° WSW 17:45:34 76° NNW 17:47:23 25° ENE visible
27 Nov -1.0 19:19:14 10° WNW 19:20:20 19° WNW 19:20:20 19° WNW visible
28 Nov -3.7 16:54:40 10° WSW 16:58:02 86° SSE 17:01:25 10° ENE visible
28 Nov -3.3 18:31:40 10° W 18:34:41 54° NNW 18:34:41 54° NNW visible
29 Nov -3.5 17:44:04 10° W 17:47:24 58° N 17:49:02 27° ENE visible
29 Nov -0.9 19:21:01 10° WNW 19:21:59 18° WNW 19:21:59 18° WNW visible
30 Nov -3.6 16:56:28 10° W 16:59:49 65° N 17:03:10 10° ENE visible
30 Nov -3.3 18:33:28 10° WNW 18:36:21 56° NW 18:36:21 56° NW visible
01 Dec -3.6 17:45:53 10° WNW 17:49:14 59° N 17:50:44 29° ENE visible
01 Dec -0.9 19:22:46 10° WNW 19:23:43 17° WNW 19:23:43 17° WNW visible
02 Dec -3.5 16:58:16 10° W 17:01:36 57° N 17:04:56 10° E visible
02 Dec -3.5 18:35:11 10° WNW 18:38:09 66° W 18:38:09 66° W visible
03 Dec -3.8 17:47:36 10° WNW 17:50:59 79° NNE 17:52:40 27° E visible
03 Dec -0.8 19:24:35 10° W 19:25:39 17° W 19:25:39 17° W visible
04 Dec -3.7 17:00:00 10° WNW 17:03:21 66° N 17:06:43 10° E visible
04 Dec -2.8 18:36:53 10° WNW 18:40:06 43° SSW 18:40:16 43° SSW visible
05 Dec -3.3 17:49:14 10° WNW 17:52:35 61° SSW 17:55:02 17° SE visible
05 Dec -0.6 19:27:02 10° WSW 19:28:01 13° WSW 19:28:01 13° WSW visible
06 Dec -3.7 17:01:37 10° WNW 17:05:00 83° SSW 17:08:22 10° ESE visible
06 Dec -1.3 18:38:51 10° W 18:41:27 21° SW 18:42:59 15° S visible
